Location: Newark
(41.0400°S, 62.7845°W)
Time: 00:11:57
(UTC+00:00)

Vanguard 2 - Pass Details

Date: 11 December 2021
Orbit: 554 x 2935 km, 32.9° (Epoch: 27 January)

Event Time Altitude Azimuth Distance (km) Brightness Sun altitude
Rises 04:33:14 0° 281° (W) 6,514 12.1 -25.6°
Reaches altitude 10° 04:37:23 10° 283° (WNW) 5,645 11.7 -25.5°
Maximum altitude 04:54:59 65° 359° (N) 3,050 10.1 -24.9°
Drops below altitude 10° 05:09:53 10° 76° (ENE) 4,876 11.6 -24.2°
Sets 05:13:11 0° 78° (ENE) 5,619 12.0 -24.0°
